Regional Weather Roundup
Issued by NWS

Home | Current Version | Previous Version | Graphics & Text | Print | Product List | Glossary On
Versions: 1 2 3 4 5 6 7 8 9 10 11 12 13 14 15 16 17 18 19 20 21 22 23 24 25 26 27 28 29 30 31 32 33 34 35 36 37 38 39 40 41 42 43 44 45 46 47 48 49 50
000
ASUS43 KDMX 292107
RWRIA

WEATHER ROUNDUP FOR IOWA
NATIONAL WEATHER SERVICE DES MOINES IA
400 PM CDT FRI MAY 29 2015

NOTE: "FAIR" INDICATES FEW OR NO CLOUDS BELOW 12,000 FEET WITH NO
SIGNIFICANT WEATHER AND/OR OBSTRUCTIONS TO VISIBILITY.

* - THESE STATIONS ARE NOT NWS STATIONS...THUS NOT UNDER NWS
QUALITY CONTROL.  THEY ALSO DO NOT REPORT WEATHER SUCH
AS PRECIPITATION OR FOG.

IAZ001>003-012>014-020>022-031>034-043>046-292200-
   NORTHWEST IOWA

CITY           SKY/WX    TMP DP  RH WIND       PRES   REMARKS
CARROLL *      MOSUNNY   75  64  69 SW16      29.89S
CHEROKEE *     CLOUDY    73  64  73 NW12G17   29.89R
DENISON *      MOSUNNY   75  64  69 SW12G20   29.88S
LE MARS *      CLOUDY    63  61  94 N18       29.93R
ORANGE CITY *  LGT RAIN  59  57  94 N16       29.94R
SHELDON *      PTSUNNY   61  59  94 N17G25    29.92S
SIOUX CITY     CLOUDY    76  59  55 N15       29.88R
SPENCER        CLOUDY    64  59  83 N25G31    29.91R
STORM LAKE *   PTSUNNY   73  63  68 NW14      29.90R
$$

IAZ055>058-069>071-079>083-090>094-292200-
   SOUTHWEST IOWA

CITY           SKY/WX    TMP DP  RH WIND       PRES   REMARKS
ATLANTIC *     PTSUNNY   73  66  78 S13       29.91F
AUDUBON *      SUNNY     73  66  78 SW10      29.91F
CLARINDA *     CLOUDY    72  66  83 S14G20    29.95S
COUNCIL BLFS * MOSUNNY   75  63  64 SW13      29.92F
CRESTON *      CLOUDY    70  66  88 SW17      29.94F
HARLAN  *      SUNNY     73  68  83 SW17      29.93F
LAMONI         LGT RAIN  70  65  84 SW14      29.95F
RED OAK *      MOSUNNY   75  64  69 SW16      29.92F
SHENANDOAH *   PTSUNNY   75  66  73 S17       29.93S
$$

IAZ047>049-059>061-072>074-084-292200-
   CENTRAL IOWA

CITY           SKY/WX    TMP DP  RH WIND       PRES   REMARKS
AMES           CLOUDY    74  64  71 SW17      29.89F
ANKENY *       PTSUNNY   72  64  78 SW13G21   29.91S
CHARITON *     PTSUNNY   70  64  83 SW14G21   29.94F
DES MOINES     CLOUDY    72  63  73 SW15      29.91F
GRINNELL*      CLOUDY    75  63  64 SW13G18   29.92F
KNOXVILLE *    PTSUNNY   72  63  73 SW17G23   29.92S
MARSHALLTOWN   CLOUDY    75  64  68 S14       29.88F
PELLA *        CLOUDY    73  66  78 SW9G18    29.93F
PERRY *          N/A     75  64  69 SW17      29.89F
$$

IAZ004>006-015-016-023>025-035-036-292200-
   NORTH CENTRAL IOWA

CITY           SKY/WX    TMP DP  RH WIND       PRES   REMARKS
ALGONA *       PTSUNNY   68  63  83 N3        29.88R
CLARION *      CLOUDY    70  64  83 W18       29.90R
ESTHERVILLE    CLOUDY    65  61  87 N20G29    29.89R
FORT DODGE *   CLOUDY    72  66  83 S7        29.89F
MASON CITY     CLOUDY    69  62  78 W8        29.90R THUNDER
FOREST CITY *  PTSUNNY   70  63  78 W3        29.89R
IOWA FALLS *   CLOUDY    70  64  83 N3        29.90F
$$

IAZ007>011-017>019-026>030-037>042-050>054-066-292200-
   NORTHEAST IOWA

CITY           SKY/WX    TMP DP  RH WIND       PRES   REMARKS
CEDAR RAPIDS   LGT RAIN  75  67  76 SW16      29.91S
CHARLES CITY * PTSUNNY   75  66  73 SW8       29.89F
CLINTON *      PTSUNNY   81  66  61 SW17      29.92F HX  83
DECORAH *      MOSUNNY   79  63  57 W13G20    29.88F HX  80
DUBUQUE        PTSUNNY   72  66  81 SW10      29.91S
MONTICELLO *   PTSUNNY   81  68  65 SW13G18   29.89F HX  83
OELWEIN *      PTSUNNY   79  63  57 S17       29.89F HX  80
WATERLOO       CLOUDY    77  61  57 SW12      29.87F
$$

IAZ064-065-067-068-078-292200-
   EAST CENTRAL IOWA

CITY           SKY/WX    TMP DP  RH WIND       PRES   REMARKS
DAVENPORT      PTSUNNY   81  65  58 SW18      29.91F HX  83
IOWA CITY      RAIN      69  64  84 W9        29.95R
MT. PLEASANT * CLOUDY    79  63  57 SW17      29.93F HX  80
MUSCATINE *    DRIZZLE   75  68  78 SW12G23   29.92S
QUAD CITIES    PTSUNNY   81  65  58 SW17      29.91F HX  83
$$

IAZ062-063-075>077-085>089-095>099-292200-
   SOUTHEAST IOWA

CITY           SKY/WX    TMP DP  RH WIND       PRES   REMARKS
BURLINGTON     CLOUDY    78  68  71 SW15      29.94F HX  80
FAIRFIELD *    MOSUNNY   77  64  65 SW14      29.93F
FORT MADISON * MOSUNNY   75  66  73 SW10      29.95F
KEOKUK *       MOSUNNY   77  68  73 W12       29.95F
OSKALOOSA *      N/A     73  64  73 SW14      29.93F
CENTERVILLE *  MOSUNNY   72  72 100 SW10      29.97S
OTTUMWA        CLOUDY    73  67  81 SW12      29.93F
WASHINGTON *   PTSUNNY   72  66  83 VRB6G13   29.95F
$$

ABBREVIATIONS USED IN REMARKS
   TC - TEMPERATURES IN CELSIUS
  WCI - WIND CHILL INDEX
   HX - HEAT INDEX
  VSB - VISIBILITY
$$




USA.gov is the U.S. government's official web portal to all federal, state and local government web resources and services.